Regional Weather Roundup
Issued by NWS

Home | Current Version | Previous Version | Graphics & Text | Print | Product List | Glossary On
Versions: 1 2 3 4 5 6 7 8 9 10 11 12 13 14 15 16 17 18 19 20 21 22 23 24 25 26 27 28 29 30 31 32 33 34 35 36 37 38 39 40 41 42 43 44 45 46 47 48 49 50
452
ASUS43 KBIS 271910
RWRND
NORTH DAKOTA REGIONAL WEATHER ROUNDUP
NATIONAL WEATHER SERVICE EASTERN NORTH DAKOTA/GRAND FORKS ND
200 PM CDT SAT MAY 27 2017

  NOTE: "FAIR" INDICATES FEW OR NO CLOUDS BELOW 12,000 FEET WITH NO
  SIGNIFICANT WEATHER AND/OR OBSTRUCTIONS TO VISIBILITY.

NDZ001>003-009>011-017-272000-
...NORTHWEST NORTH DAKOTA...

CITY           SKY/WX    TMP DP  RH WIND       PRES   REMARKS
WILLISTON      PTSUNNY   76  36  23 W18       29.82F
MINOT          PTSUNNY   69  37  30 W30G38    29.78S
MINOT AFB      FAIR      68  40  35 NW24G32   29.74F
$$

NDZ018>021-031>035-040>046-272000-
...SOUTHWEST NORTH DAKOTA...

CITY           SKY/WX    TMP DP  RH WIND       PRES   REMARKS
BISMARCK       FAIR      76  39  26 W20G28    29.84F
DICKINSON      FAIR      71  35  26 W18G33    29.86F
GARRISON         N/A     72  39  30 W21G37    29.80F
HETTINGER      FAIR      72  34  24 W22G33    29.92F
$$

NDZ004>008-012>016-024-026-027-054-272000-
...NORTHEAST NORTH DAKOTA...

CITY           SKY/WX    TMP DP  RH WIND       PRES   REMARKS
GRAND FORKS    PTSUNNY   77  41  27 W16G28    29.75F
GRAND FORKS AF FAIR      75  41  29 NW18G29   29.75F
DEVILS LAKE    FAIR      71  41  33 W16       29.77F
$$

NDZ022-023-025-028>030-036>039-047>053-272000-
...SOUTHEAST NORTH DAKOTA...

CITY           SKY/WX    TMP DP  RH WIND       PRES   REMARKS
JAMESTOWN      PTSUNNY   72  38  29 W15       29.80F
FARGO          FAIR      78  38  23 W21G28    29.78F
WAHPETON       FAIR      73  34  23 W17G24    29.83F
$$




USA.gov is the U.S. government's official web portal to all federal, state and local government web resources and services.